SCP
0 0 -0 -0 -0 -0 -0 -0 -0 -0 -0 -0 -0 -0 -0 -0 -0 -0 -0 -0 -0 -0 -0 -0 0 0 0 0 0 0 0 0 0 0 0 0 0 0 0 -0 0 0 0
-0 0 -0 -0 -0 -0 -0 -0 -0 -0 -0 -0 -0 -0 -0 -0 -0 -0 -0 -0 -0 -0 -0 -0 -0 -0 0 0 -0 0 0 0 0 0 0 0 0 0 0 -0 0 0 0
-0 -0 -0 -0 -0 -0 -0 -0 -0 -0 -0 -0 -0 -0 -0 -0 -0 -0 -0 -0 -0 -0 -0 -0 -0 -0 -0 -0 -0 0 0 0 0 0 0 0 0 0 0 0 -0 0 0
-0 -0 -0 -0 -1 -0 -0 -0 -0 -0 -0 -0 -0 -0 -0 -0 -0 -0 -0 -0 -0 -0 -0 -0 -0 -0 -0 -0 -0 -0 -0 0 0 0 0 0 0 0 0 0 0 0 0
-0 -0 -0 -1 -1 -0 -0 -0 -0 -0 -0 -0 -0 -0 -0 -0 -0 -0 -0 -0 -0 -0 -0 -0 -0 -0 -0 -0 -0 -0 -0 -0 -0 0 0 0 0 0 0 0 0 -0 0
0 -0 -0 -0 -0 -0 -0 -0 -0 -0 -0 -0 -0 -0 -0 -0 -0 -0 -0 -0 -0 -0 -0 0 -0 -0 -0 -0 -0 -0 -0 -0 -0 -0 -0 -0 0 -0 0 0 -0 -0 -0
0 0 -0 -1 -1 -0 -0 -0 -0 -0 -0 -0 -0 -0 -0 -0 -0 0 0 0 0 0 -0 -0 -0 -0 -0 -0 0 0 -0 -0 -0 0 -0 -0 -0 -0 -0 -0 -0 -0 -0
0 0 -0 -0 -0 -0 -0 -0 -0 -0 -0 -0 -0 -0 -0 -0 -0 -0 -0 0 -0 -0 0 0 0 0 -0 -0 -0 0 -0 0 0 0 0 -0 -0 -0 -0 -0 -0 -0 -0
0 0 0 -0 -0 -0 -0 -0 -0 -0 -0 -0 -0 -0 -0 -0 -0 -0 -0 -0 0 -0 0 0 0 0 -0 -0 0 0 0 0 0 -0 0 -0 -0 -0 -0 -0 -0 -0 -0
-0 0 0 0 0 0 0 -0 -0 -0 -0 -0 -0 -0 -0 -0 -0 -0 -0 -0 0 -0 0 0 0 0 0 -0 -0 -0 0 0 0 -0 0 -0 -0 -0 -0 -0 -0 -0 -0
0 0 0 0 0 0 0 -0 -0 -0 -0 -0 -0 -0 -0 -0 -0 -0 0 0 0 -0 -0 -0 0 0 0 0 0 0 0 0 0 0 0 -0 -0 -0 -0 -0 -0 -0 -0
0 0 0 0 0 0 0 0 0 0 0 -0 -0 -0 0 -0 -0 -0 -0 0 0 0 -0 -0 -0 0 0 0 0 0 0 0 0 0 0 0 -0 -0 -0 -0 -0 -0 -0
0 0 0 0 0 0 0 0 0 0 0 0 0 0 0 -0 -0 -0 0 0 0 0 0 -0 -0 0 0 0 0 0 0 0 0 0 0 0 0 -0 0 0 0 -0 -0
0 0 0 0 0 0 0 0 -0 0 0 0 0 0 0 -0 0 0 0 0 0 0 0 0 0 0 0 0 0 0 0 0 0 0 0 0 -0 0 0 0 0 0 -0
0 0 0 0 0 0 0 0 -0 -0 0 -0 0 0 0 0 0 0 0 0 0 0 0 0 0 0 0 0 0 0 0 0 0 0 0 0 0 0 0 0 0 -0 -0
0 0 0 0 0 0 0 -0 -0 -0 0 0 -0 -0 0 0 0 0 0 0 0 0 0 0 0 0 0 0 0 0 0 0 0 0 0 0 0 0 0 0 0 0 -0
0 0 0 0 0 0 0 0 -0 -0 -0 0 0 -0 0 0 0 0 0 -0 -0 0 0 0 0 0 0 0 0 0 0 0 0 0 0 0 0 0 0 0 0 0 0
1 0 1 1 -0 0 0 0 0 -0 0 0 0 -0 -0 0 0 0 0 0 0 0 0 0 0 0 0 0 0 0 0 0 0 0 0 0 0 0 0 0 0 0 0
1 1 1 0 0 0 0 0 0 0 0 0 0 0 0 0 0 0 0 0 0 0 0 0 0 0 0 0 0 0 0 0 0 0 -0 0 0 0 0 0 0 0 0
1 1 1 0 1 0 0 0 0 0 0 0 0 0 0 0 0 0 0 0 0 0 0 0 0 0 0 0 0 0 0 0 0 0 0 0 0 0 0 0 0 0 0
1 1 1 0 0 0 0 0 0 0 0 0 0 -0 0 0 0 0 0 0 0 0 0 0 0 0 0 0 0 0 0 0 0 0 0 0 0 0 0 0 0 0 0
1 1 1 0 0 0 0 -0 0 -0 0 0 0 0 0 0 0 0 0 0 0 0 0 0 0 0 0 0 0 0 0 0 0 0 0 0 0 0 0 0 0 0 0
1 1 0 0 0 0 0 -0 -0 -0 0 0 0 0 0 0 0 0 0 0 0 0 0 0 0 0 0 0 0 0 0 0 0 0 0 0 0 0 0 0 0 0 0
0 0 0 0 0 0 0 0 0 0 -0 -0 0 -0 0 0 0 0 0 0 0 0 0 0 0 0 0 0 0 0 0 0 0 0 0 0 0 0 0 0 0 0 0
-0 -0 0 0 0 0 0 0 0 0 0 0 0 0 0 0 0 0 0 0 0 0 0 0 0 0 0 0 0 0 0 0 0 0 0 0 0 0 0 0 0 0 0
0 -0 0 0 0 0 0 0 0 -0 -0 -0 0 0 0 0 0 0 0 0 0 0 0 0 0 0 0 0 0 0 0 0 0 0 0 0 0 0 0 0 0 0 0
Wind_Speed_500mb
49 41 37 32 29 31 33 31 30 29 29 29 29 31 31 31 26 23 22 21 20 15 14 16 16 16 18 16 18 17 18 18 19 22 27 29 26 24 30 26 31 31 32
53 43 38 33 28 30 32 31 30 30 29 29 27 24 25 26 23 23 22 18 16 12 13 15 16 16 16 17 19 16 20 19 23 26 26 30 26 30 28 24 30 26 27
47 45 39 34 29 28 30 30 29 29 29 29 28 26 23 23 23 21 19 16 15 15 11 12 16 16 16 17 19 20 25 24 24 25 25 27 24 24 27 27 24 26 25
45 45 41 37 31 27 27 28 28 28 29 29 26 23 23 24 24 22 19 16 15 15 14 15 11 11 16 16 20 22 26 27 25 23 20 21 17 19 22 24 23 25 22
47 44 40 37 33 28 25 26 27 28 29 28 24 21 21 23 23 21 18 16 16 14 14 14 13 14 16 21 19 22 23 26 25 24 19 21 15 17 19 23 23 22 21
43 42 40 35 33 29 26 24 24 26 27 26 25 24 24 23 22 18 14 13 13 14 13 12 13 16 18 21 21 24 25 26 26 23 21 19 15 16 19 21 22 22 21
42 41 40 36 32 29 27 25 25 25 25 24 22 22 22 22 20 17 13 12 12 12 10 10 9 15 20 19 22 28 29 25 23 19 16 15 14 15 19 19 20 20 19
42 43 40 35 31 29 27 26 26 24 24 23 21 21 20 19 18 16 14 13 11 11 9 9 8 13 19 21 23 26 27 27 21 15 14 11 9 11 15 19 16 14 16
43 41 39 34 32 30 27 26 25 24 24 22 21 21 19 18 17 16 15 14 13 11 9 11 8 12 19 23 25 23 22 24 19 14 13 12 8 7 12 17 15 12 15
43 40 37 36 33 31 30 27 26 25 25 24 22 21 18 17 16 16 15 13 12 11 8 8 11 10 14 21 23 24 22 19 16 12 11 12 9 7 10 16 16 13 15
45 43 39 37 34 31 30 29 28 26 25 24 23 22 21 17 15 14 14 12 10 11 9 8 11 13 14 18 24 25 25 22 19 14 14 15 16 10 9 14 17 16 17
49 44 40 37 34 32 31 30 28 27 25 23 22 21 20 19 16 14 13 11 8 6 5 7 9 12 15 19 22 25 27 25 24 13 16 14 15 16 12 13 17 17 18
42 42 40 39 37 34 32 30 28 26 25 23 19 17 18 20 15 13 12 12 11 8 6 7 7 10 14 15 21 26 27 28 29 27 24 20 16 16 19 14 17 18 19
41 39 37 38 37 33 31 31 29 29 27 23 20 18 18 19 15 10 9 9 18 12 12 8 6 8 10 14 19 24 26 29 31 31 31 28 22 20 20 20 16 20 21
41 39 33 34 32 29 31 30 31 27 22 23 22 23 29 23 20 23 16 12 15 16 14 14 10 12 11 14 16 21 27 28 32 34 33 36 27 23 20 17 20 21 24
40 35 33 31 27 21 13 20 25 24 25 26 22 21 24 28 26 21 18 16 20 20 19 22 23 24 23 23 25 27 26 34 30 31 35 36 30 29 27 25 22 25 27
36 30 34 31 21 14 22 25 19 25 26 24 29 31 31 26 26 29 24 22 20 22 24 26 28 31 32 34 37 39 39 38 39 30 32 32 36 32 29 30 30 28 30
37 33 32 37 20 16 18 22 24 20 26 21 24 28 25 23 24 28 27 23 22 29 29 26 25 31 33 36 33 31 38 41 42 34 31 36 35 36 35 29 29 27 28
33 33 25 19 21 16 19 27 25 26 19 21 16 19 14 15 14 14 16 21 25 26 27 32 31 32 33 33 37 30 26 33 41 38 36 37 36 37 36 38 35 35 38
37 31 25 18 13 11 9 19 26 27 11 13 11 8 6 9 10 14 19 22 23 25 29 31 34 37 38 33 32 34 33 34 41 49 45 40 37 31 29 31 28 29 30
41 32 23 17 10 15 16 26 19 14 10 9 3 9 5 8 12 15 14 18 22 25 25 29 31 34 38 38 38 38 36 35 37 34 35 34 34 31 32 30 29 28 28
41 30 24 15 10 7 6 4 15 14 17 3 11 5 2 3 7 12 15 18 22 26 29 32 32 33 32 34 36 35 28 30 35 34 31 38 38 34 36 31 32 29 28
36 33 25 18 11 15 16 22 24 17 12 9 2 3 6 9 12 14 18 21 26 29 27 26 29 32 30 29 31 28 10 13 15 24 21 32 30 30 33 26 30 27 27
29 29 35 17 18 27 24 20 12 9 3 3 1 7 11 14 18 22 23 23 22 19 21 23 26 29 29 28 29 32 35 13 3 7 9 14 20 24 31 32 36 29 29
21 21 26 18 27 30 26 19 8 3 4 3 5 10 14 18 20 24 22 19 14 14 17 20 22 23 25 25 25 25 32 34 30 21 18 13 7 2 7 12 23 24 27
35 30 30 24 32 34 28 19 10 5 4 5 8 11 16 18 20 19 17 15 10 11 13 12 12 8 8 13 19 23 28 31 35 35 34 23 17 10 2 3 8 15 18
Wind_Direction_500mb
161 156 155 153 141 144 152 152 152 151 150 149 145 143 147 153 153 147 138 135 137 133 130 128 127 128 137 131 132 131 128 125 122 127 126 125 124 113 119 121 117 121 123
157 162 158 154 145 145 149 151 149 151 150 148 148 145 146 153 155 151 145 144 143 142 136 133 140 124 141 132 133 135 129 124 117 120 120 126 119 125 123 128 125 119 119
162 166 163 158 156 153 150 152 152 150 151 151 149 148 149 152 154 153 151 150 147 142 137 136 140 133 144 138 138 133 129 117 118 128 128 129 118 125 133 126 128 124 127
169 167 165 163 163 161 155 154 154 153 155 154 153 151 153 156 161 158 157 159 155 156 145 140 135 146 151 134 138 138 139 139 140 137 131 140 128 117 135 142 138 142 140
170 167 165 166 167 167 162 158 157 158 158 159 157 155 160 158 162 160 156 158 154 149 157 157 157 161 164 154 156 151 141 143 142 136 127 137 132 127 134 140 135 140 136
168 166 169 170 172 169 166 164 162 161 162 162 161 159 161 162 164 167 162 159 157 153 151 148 170 170 177 164 164 162 146 140 138 132 128 132 132 137 143 152 145 149 144
172 169 171 175 177 174 171 168 168 168 167 166 164 160 161 163 163 165 164 162 161 151 143 134 170 184 181 171 164 163 163 155 151 142 138 127 127 142 154 157 158 159 158
178 171 174 178 182 180 176 172 172 172 171 171 167 162 163 163 159 162 160 155 157 150 155 137 149 183 177 179 170 172 182 186 178 172 166 144 141 148 159 166 162 171 166
179 177 178 181 185 184 183 177 175 176 176 175 171 166 166 162 160 157 155 156 153 151 152 142 155 185 187 189 181 176 171 173 185 177 182 176 165 176 168 178 184 185 184
182 183 184 187 189 188 187 182 181 180 179 176 171 166 170 169 162 159 158 155 152 150 165 153 149 177 192 201 198 191 197 195 200 209 212 205 198 203 199 200 207 203 196
189 191 193 194 195 193 192 188 186 184 182 177 176 171 172 173 170 163 161 155 156 154 159 167 157 174 196 208 211 209 208 209 206 230 213 217 223 224 225 213 216 214 211
196 198 200 200 202 200 199 197 192 190 187 182 183 180 182 182 174 172 170 173 173 165 170 179 177 188 194 212 217 217 221 226 226 237 219 225 230 235 238 232 224 224 222
194 203 207 206 205 208 205 204 201 198 193 190 186 192 196 197 197 209 228 234 251 223 220 207 206 199 209 208 225 229 230 231 231 235 232 238 246 238 237 234 234 234 226
200 205 211 210 211 215 216 216 208 204 202 192 193 210 217 221 212 216 264 238 234 257 242 214 222 204 212 221 229 233 236 241 242 238 235 237 245 243 236 242 240 244 240
206 207 206 207 209 218 226 224 224 216 215 213 213 223 228 244 240 261 260 244 251 258 263 254 263 245 243 249 244 240 235 242 248 246 239 237 247 247 232 241 233 248 249
210 211 204 205 210 223 253 263 252 232 217 216 238 241 233 244 243 259 248 248 252 256 255 256 263 266 258 258 257 258 252 247 243 249 251 244 244 252 244 240 248 241 247
213 213 210 202 195 239 241 231 243 244 239 227 255 241 245 253 259 250 260 254 262 267 266 259 256 260 262 266 273 267 255 242 239 261 247 247 248 253 260 252 256 252 246
223 220 221 215 180 202 238 229 239 266 246 247 250 229 232 248 264 258 261 262 272 267 277 272 270 264 261 266 271 272 250 242 236 255 254 250 251 251 253 250 249 256 254
238 236 231 224 227 259 257 234 238 234 255 251 232 242 229 240 263 267 248 262 266 278 273 276 271 270 266 269 263 261 258 244 245 246 245 251 248 248 251 254 253 258 260
248 242 231 232 255 266 248 261 259 223 291 210 194 200 216 250 253 248 271 275 264 274 276 275 271 265 264 263 257 254 257 252 245 251 261 240 240 239 247 247 249 259 266
244 243 224 223 272 315 298 263 239 185 154 172 341 274 276 245 251 253 261 276 276 279 274 281 283 276 263 256 255 256 259 262 255 247 223 229 246 247 249 250 252 256 262
239 239 207 220 263 292 16 169 160 172 138 300 295 265 268 277 285 282 285 290 290 286 280 282 279 275 269 257 248 252 267 267 252 240 241 239 240 253 251 256 257 260 268
233 224 199 221 204 155 124 93 113 137 175 244 302 349 324 312 303 302 303 303 301 295 288 281 277 273 269 256 242 232 222 232 213 229 241 245 236 251 242 243 249 256 270
241 219 202 220 170 155 152 128 100 117 152 251 280 332 337 329 318 315 312 305 299 292 294 290 283 275 266 252 244 232 226 235 215 180 193 199 239 244 245 243 244 250 275
302 243 240 188 167 160 166 174 179 216 229 194 326 333 329 321 324 320 315 310 305 302 299 304 300 282 255 249 245 237 232 238 244 237 194 202 246 252 224 230 220 248 271
251 249 235 192 174 167 168 178 203 228 283 326 327 323 325 327 327 326 332 331 310 309 322 316 318 322 246 245 239 239 232 234 240 242 255 225 266 252 71 247 251 256 263
Wind_Speed_850mb
49 41 37 32 29 31 33 31 30 29 29 29 29 31 31 31 26 23 22 21 20 15 14 16 16 16 18 16 18 17 18 18 19 22 27 29 26 24 30 26 31 31 32
53 43 38 33 28 30 32 31 30 30 29 29 27 24 25 26 23 23 22 18 16 12 13 15 16 16 16 17 19 16 20 19 23 26 26 30 26 30 28 24 30 26 27
47 45 39 34 29 28 30 30 29 29 29 29 28 26 23 23 23 21 19 16 15 15 11 12 16 16 16 17 19 20 25 24 24 25 25 27 24 24 27 27 24 26 25
45 45 41 37 31 27 27 28 28 28 29 29 26 23 23 24 24 22 19 16 15 15 14 15 11 11 16 16 20 22 26 27 25 23 20 21 17 19 22 24 23 25 22
47 44 40 37 33 28 25 26 27 28 29 28 24 21 21 23 23 21 18 16 16 14 14 14 13 14 16 21 19 22 23 26 25 24 19 21 15 17 19 23 23 22 21
43 42 40 35 33 29 26 24 24 26 27 26 25 24 24 23 22 18 14 13 13 14 13 12 13 16 18 21 21 24 25 26 26 23 21 19 15 16 19 21 22 22 21
42 41 40 36 32 29 27 25 25 25 25 24 22 22 22 22 20 17 13 12 12 12 10 10 9 15 20 19 22 28 29 25 23 19 16 15 14 15 19 19 20 20 19
42 43 40 35 31 29 27 26 26 24 24 23 21 21 20 19 18 16 14 13 11 11 9 9 8 13 19 21 23 26 27 27 21 15 14 11 9 11 15 19 16 14 16
43 41 39 34 32 30 27 26 25 24 24 22 21 21 19 18 17 16 15 14 13 11 9 11 8 12 19 23 25 23 22 24 19 14 13 12 8 7 12 17 15 12 15
43 40 37 36 33 31 30 27 26 25 25 24 22 21 18 17 16 16 15 13 12 11 8 8 11 10 14 21 23 24 22 19 16 12 11 12 9 7 10 16 16 13 15
45 43 39 37 34 31 30 29 28 26 25 24 23 22 21 17 15 14 14 12 10 11 9 8 11 13 14 18 24 25 25 22 19 14 14 15 16 10 9 14 17 16 17
49 44 40 37 34 32 31 30 28 27 25 23 22 21 20 19 16 14 13 11 8 6 5 7 9 12 15 19 22 25 27 25 24 13 16 14 15 16 12 13 17 17 18
42 42 40 39 37 34 32 30 28 26 25 23 19 17 18 20 15 13 12 12 11 8 6 7 7 10 14 15 21 26 27 28 29 27 24 20 16 16 19 14 17 18 19
41 39 37 38 37 33 31 31 29 29 27 23 20 18 18 19 15 10 9 9 18 12 12 8 6 8 10 14 19 24 26 29 31 31 31 28 22 20 20 20 16 20 21
41 39 33 34 32 29 31 30 31 27 22 23 22 23 29 23 20 23 16 12 15 16 14 14 10 12 11 14 16 21 27 28 32 34 33 36 27 23 20 17 20 21 24
40 35 33 31 27 21 13 20 25 24 25 26 22 21 24 28 26 21 18 16 20 20 19 22 23 24 23 23 25 27 26 34 30 31 35 36 30 29 27 25 22 25 27
36 30 34 31 21 14 22 25 19 25 26 24 29 31 31 26 26 29 24 22 20 22 24 26 28 31 32 34 37 39 39 38 39 30 32 32 36 32 29 30 30 28 30
37 33 32 37 20 16 18 22 24 20 26 21 24 28 25 23 24 28 27 23 22 29 29 26 25 31 33 36 33 31 38 41 42 34 31 36 35 36 35 29 29 27 28
33 33 25 19 21 16 19 27 25 26 19 21 16 19 14 15 14 14 16 21 25 26 27 32 31 32 33 33 37 30 26 33 41 38 36 37 36 37 36 38 35 35 38
37 31 25 18 13 11 9 19 26 27 11 13 11 8 6 9 10 14 19 22 23 25 29 31 34 37 38 33 32 34 33 34 41 49 45 40 37 31 29 31 28 29 30
41 32 23 17 10 15 16 26 19 14 10 9 3 9 5 8 12 15 14 18 22 25 25 29 31 34 38 38 38 38 36 35 37 34 35 34 34 31 32 30 29 28 28
41 30 24 15 10 7 6 4 15 14 17 3 11 5 2 3 7 12 15 18 22 26 29 32 32 33 32 34 36 35 28 30 35 34 31 38 38 34 36 31 32 29 28
36 33 25 18 11 15 16 22 24 17 12 9 2 3 6 9 12 14 18 21 26 29 27 26 29 32 30 29 31 28 10 13 15 24 21 32 30 30 33 26 30 27 27
29 29 35 17 18 27 24 20 12 9 3 3 1 7 11 14 18 22 23 23 22 19 21 23 26 29 29 28 29 32 35 13 3 7 9 14 20 24 31 32 36 29 29
21 21 26 18 27 30 26 19 8 3 4 3 5 10 14 18 20 24 22 19 14 14 17 20 22 23 25 25 25 25 32 34 30 21 18 13 7 2 7 12 23 24 27
35 30 30 24 32 34 28 19 10 5 4 5 8 11 16 18 20 19 17 15 10 11 13 12 12 8 8 13 19 23 28 31 35 35 34 23 17 10 2 3 8 15 18
Wind_Direction_850mb
161 156 155 153 141 144 152 152 152 151 150 149 145 143 147 153 153 147 138 135 137 133 130 128 127 128 137 131 132 131 128 125 122 127 126 125 124 113 119 121 117 121 123
157 162 158 154 145 145 149 151 149 151 150 148 148 145 146 153 155 151 145 144 143 142 136 133 140 124 141 132 133 135 129 124 117 120 120 126 119 125 123 128 125 119 119
162 166 163 158 156 153 150 152 152 150 151 151 149 148 149 152 154 153 151 150 147 142 137 136 140 133 144 138 138 133 129 117 118 128 128 129 118 125 133 126 128 124 127
169 167 165 163 163 161 155 154 154 153 155 154 153 151 153 156 161 158 157 159 155 156 145 140 135 146 151 134 138 138 139 139 140 137 131 140 128 117 135 142 138 142 140
170 167 165 166 167 167 162 158 157 158 158 159 157 155 160 158 162 160 156 158 154 149 157 157 157 161 164 154 156 151 141 143 142 136 127 137 132 127 134 140 135 140 136
168 166 169 170 172 169 166 164 162 161 162 162 161 159 161 162 164 167 162 159 157 153 151 148 170 170 177 164 164 162 146 140 138 132 128 132 132 137 143 152 145 149 144
172 169 171 175 177 174 171 168 168 168 167 166 164 160 161 163 163 165 164 162 161 151 143 134 170 184 181 171 164 163 163 155 151 142 138 127 127 142 154 157 158 159 158
178 171 174 178 182 180 176 172 172 172 171 171 167 162 163 163 159 162 160 155 157 150 155 137 149 183 177 179 170 172 182 186 178 172 166 144 141 148 159 166 162 171 166
179 177 178 181 185 184 183 177 175 176 176 175 171 166 166 162 160 157 155 156 153 151 152 142 155 185 187 189 181 176 171 173 185 177 182 176 165 176 168 178 184 185 184
182 183 184 187 189 188 187 182 181 180 179 176 171 166 170 169 162 159 158 155 152 150 165 153 149 177 192 201 198 191 197 195 200 209 212 205 198 203 199 200 207 203 196
189 191 193 194 195 193 192 188 186 184 182 177 176 171 172 173 170 163 161 155 156 154 159 167 157 174 196 208 211 209 208 209 206 230 213 217 223 224 225 213 216 214 211
196 198 200 200 202 200 199 197 192 190 187 182 183 180 182 182 174 172 170 173 173 165 170 179 177 188 194 212 217 217 221 226 226 237 219 225 230 235 238 232 224 224 222
194 203 207 206 205 208 205 204 201 198 193 190 186 192 196 197 197 209 228 234 251 223 220 207 206 199 209 208 225 229 230 231 231 235 232 238 246 238 237 234 234 234 226
200 205 211 210 211 215 216 216 208 204 202 192 193 210 217 221 212 216 264 238 234 257 242 214 222 204 212 221 229 233 236 241 242 238 235 237 245 243 236 242 240 244 240
206 207 206 207 209 218 226 224 224 216 215 213 213 223 228 244 240 261 260 244 251 258 263 254 263 245 243 249 244 240 235 242 248 246 239 237 247 247 232 241 233 248 249
210 211 204 205 210 223 253 263 252 232 217 216 238 241 233 244 243 259 248 248 252 256 255 256 263 266 258 258 257 258 252 247 243 249 251 244 244 252 244 240 248 241 247
213 213 210 202 195 239 241 231 243 244 239 227 255 241 245 253 259 250 260 254 262 267 266 259 256 260 262 266 273 267 255 242 239 261 247 247 248 253 260 252 256 252 246
223 220 221 215 180 202 238 229 239 266 246 247 250 229 232 248 264 258 261 262 272 267 277 272 270 264 261 266 271 272 250 242 236 255 254 250 251 251 253 250 249 256 254
238 236 231 224 227 259 257 234 238 234 255 251 232 242 229 240 263 267 248 262 266 278 273 276 271 270 266 269 263 261 258 244 245 246 245 251 248 248 251 254 253 258 260
248 242 231 232 255 266 248 261 259 223 291 210 194 200 216 250 253 248 271 275 264 274 276 275 271 265 264 263 257 254 257 252 245 251 261 240 240 239 247 247 249 259 266
244 243 224 223 272 315 298 263 239 185 154 172 341 274 276 245 251 253 261 276 276 279 274 281 283 276 263 256 255 256 259 262 255 247 223 229 246 247 249 250 252 256 262
239 239 207 220 263 292 16 169 160 172 138 300 295 265 268 277 285 282 285 290 290 286 280 282 279 275 269 257 248 252 267 267 252 240 241 239 240 253 251 256 257 260 268
233 224 199 221 204 155 124 93 113 137 175 244 302 349 324 312 303 302 303 303 301 295 288 281 277 273 269 256 242 232 222 232 213 229 241 245 236 251 242 243 249 256 270
241 219 202 220 170 155 152 128 100 117 152 251 280 332 337 329 318 315 312 305 299 292 294 290 283 275 266 252 244 232 226 235 215 180 193 199 239 244 245 243 244 250 275
302 243 240 188 167 160 166 174 179 216 229 194 326 333 329 321 324 320 315 310 305 302 299 304 300 282 255 249 245 237 232 238 244 237 194 202 246 252 224 230 220 248 271
251 249 235 192 174 167 168 178 203 228 283 326 327 323 325 327 327 326 332 331 310 309 322 316 318 322 246 245 239 239 232 234 240 242 255 225 266 252 71 247 251 256 263